Location: Rio Rancho Estates
(35.2387°N, 106.6673°W)
Time: 19:31:07
(UTC+00:00)

Daily predictions for brighter satellites

Satellite Brightness Start Highest point End
(mag) Time Altitude Azimuth Time Altitude Azimuth Time Altitude Azimuth
ATLAS 5 CENTAUR R/B 1.7 12:05:18 37° WNW 12:05:55 40° NW 12:09:54 10° NNE
Cosmos 1140 Rocket 3.4 12:01:13 10° SSW 12:06:25 76° WNW 12:11:37 10° NNE
Iridium 51 4.0 12:03:34 10° N 12:07:14 84° E 12:10:43 10° S
CZ-2C R/B 4.1 12:06:05 10° NNW 12:07:32 15° NW 12:07:32 15° NW
RESURS DK-1 4.1 12:06:20 10° S 12:10:04 34° ESE 12:13:49 10° NE
CZ-2C R/B 3.9 12:08:13 10° S 12:10:55 16° SSE 12:13:39 10° ESE
Cosmos 1328 Rocket 3.4 12:06:42 10° S 12:10:59 90° S 12:15:19 10° N
H-2A R/B 4.2 12:07:39 10° NNE 12:11:21 41° E 12:14:59 10° S
NOSS 3-4 (A) 3.6 12:09:11 24° WSW 12:12:27 48° NW 12:18:22 10° NNE
NOSS 3-4 (C) 3.6 12:09:14 24° WSW 12:12:32 48° NW 12:18:28 10° NNE
Milstar 3 Cent rocket 2.7 12:11:55 22° WSW 12:14:22 38° S 12:18:45 10° ESE
Celestis-02/Orion 38 4.5 12:11:13 10° NNE 12:16:26 78° WNW 12:21:30 10° SSW
Cosmos 1242 Rocket 4.3 12:14:50 10° SSE 12:17:57 33° E 12:21:06 10° NNE
Meteor 1-25 Rocket 4.1 12:13:19 10° NNW 12:18:51 73° W 12:24:22 10° S
Cosmos 2219 3.9 12:13:31 10° S 12:19:02 57° ESE 12:24:35 10° NNE
Meteor 1-31 Rocket 2.8 12:16:03 10° N 12:19:49 55° WNW 12:23:32 10° SSW
SeaSat 1 3.0 12:15:40 10° SE 12:20:29 59° ENE 12:25:21 10° NNW
NOSS 3-2 (C) 4.1 12:13:42 10° NNW 12:21:39 81° WSW 12:30:24 10° SSE
Cosmos 2322 3.9 12:18:35 10° NNW 12:24:01 49° WSW 12:29:26 10° S
ADEOS 3.6 12:19:20 10° N 12:24:26 55° WNW 12:29:31 10° SSW
MOS 1 Rocket 3.1 12:20:21 10° SSE 12:24:40 87° E 12:29:13 10° N
CZ-4C R/B 2.9 12:23:22 20° W 12:25:39 29° NW 12:30:31 10° NNE
COSMO-SKYMED 1 2.7 12:21:48 10° SSE 12:26:07 81° ENE 12:30:28 10° N
Cosmos 1470 Rocket 4.1 12:23:04 10° N 12:27:21 60° E 12:31:36 10° SSE
ATLAS 2AS CENTAUR R/B 3.1 12:19:33 10° SW 12:27:22 66° WNW 12:35:11 10° NNE
Landsat 5 4.4 12:24:40 10° SSW 12:27:37 21° W 12:30:36 10° NW
SJ-12 4.0 12:25:35 10° N 12:29:32 52° WNW 12:33:27 10° SSW
Delta 2 Rocket 3.8 12:26:45 19° W 12:30:10 81° SSW 12:35:28 10° ESE
deb Chang Zheng 4 3.7 12:30:48 10° NNE 12:35:06 81° ESE 12:39:25 10° S
ISS -1.3 12:32:40 10° NNW 12:35:09 19° NNE 12:37:37 10° ENE
Nadezhda 1 Rocket 3.9 12:29:18 10° S 12:35:25 81° W 12:41:38 10° N
Cosmos 1437 Rocket 3.5 12:33:53 10° SW 12:37:37 34° WNW 12:41:19 10° NNW
CZ-4B R/B 3.1 12:33:43 10° N 12:38:15 80° WNW 12:42:42 10° SSW
Cosmos 2228 Rocket 4.4 12:38:45 10° SSE 12:43:07 46° E 12:47:30 10° NNE
Sich 1 4.3 12:40:32 10° NW 12:43:44 20° W 12:46:56 10° SW
Meteor 1-14 Rocket 4.3 12:38:17 10° N 12:44:00 89° E 12:49:50 10° S
Cosmos 1782 3.6 12:41:54 10° SW 12:45:22 30° WNW 12:48:52 10° NNW
Cosmos 1933 Rocket 4.0 12:43:25 10° N 12:47:52 68° E 12:52:18 10° SSE
Meteor PRIRODA 3.7 12:44:18 10° N 12:47:59 59° WNW 12:51:38 10° SSW
Cosmos 2360 Rocket 3.8 12:46:17 10° WNW 12:48:25 12° W 12:50:34 10° WSW
GPS 2-04 Rocket1 2.5 12:45:07 13° W 12:48:26 90° SSW 12:52:20 10° E
Cosmos 1666 Rocket 4.3 12:45:23 10° NNW 12:49:11 30° W 12:53:01 10° SSW
CZ-3 R/B 2.9 12:37:48 10° WSW 12:55:27 52° S 13:00:48 10° ESE
Sakura Rocket 4.3 12:52:49 10° WSW 12:55:56 21° SSW 12:58:46 10° SE
Cosmos 2237 Rocket 2.7 12:50:18 10° NNW 12:55:58 68° ENE 13:01:34 10° SSE
Meteor 2-6 Rocket 4.3 12:50:37 10° SSW 12:56:34 78° W 13:02:28 10° N
Okean O Rocket 4.5 12:55:38 10° NE 12:59:14 24° E 13:02:49 10° SSE
Cosmos 2327 Rocket 4.4 12:56:02 10° NNW 13:02:04 66° W 13:08:04 10° S
Cosmos 1954 Rocket 4.4 12:57:52 10° SW 13:02:51 42° WNW 13:07:51 10° N
H-2A R/B 3.6 13:01:28 10° SW 13:04:03 16° W 13:06:37 10° WNW
ATLAS 3B R/B 3.9 13:00:22 10° NNW 13:07:12 49° NE 13:14:15 10° SE
